H-2A R/B, 27369

Orbit data source: Space-Track

H-2A R/B, 27369 is space debris in HEO originally from a launch on Mon, 04 Feb 2002 UTC launched from the Tanegashima Space Center (TNSTA). Debris objects in space refer to the collection of defunct objects orbiting the Earth. Examples of debris include non-operational satellites, rocket bodies, and fragments generated from explosions, collisions, or faulty payload assembly.

Loading next visibility...
Identifier
27369, 2002-003C
Orbit
HEO
Country
Flag of JPJP / JPN
Related business
Manufacturer
Unknown
Mission
Spacecraft
Bus & Motor
H-2A STAGE 2, Unknown motor
Mass
4,000 kg wet, 4,000 kg dry
Launch date (UTC)
2002-02-04 (24 years ago)
Launch vehicle
Unknown
Launch site
Tanegashima Space Center (TNSTA)
Object type
Payload
Rocket body
Debris
Shape & HBR
Cyl, 4.6 m
Radar Cross Section
35.186 m², Large (>1 m²)

Expand to show TLE details & history
Last TLE update: 4 days ago

TLE from 4 days ago
0 H-2A R/B
1 27369U 02003C   26205.92512264  .00000043  00000-0  00000-0 0  9995
2 27369  23.6967 130.6695 6881869 266.4264  19.3824  2.37191541211406
Epoch: 2026-07-24T22:12Z
TLE epoch observation values (Epoch: 2026-07-24T22:12:10.596Z)
Latitude
0.00041°
Longitude
-145.10217°
Altitude
6,704.281 km
Speed
6.645 km/s
True Right ascension
08h 42m 20s
True Declination
0° 00' 01"
Sunlit
Object was in daylight at epoch
Visualization orbit readout
Latitude
Unknown
Longitude
Unknown
Altitude
Unknown
Speed
Unknown
Apparent Right ascension
Unknown
Apparent Declination
Unknown
Sunlit
N/A
Visualization observer readout
Local Sidereal Time
11:34:15
Azimuth
Unknown
Elevation
Unknown
Doppler factor
Unknown
Orbital elements
Apogee altitude
33,723.039 km
Perigee altitude
1,028.669 km
Semi-major axis
23,753.991 km
Eccentricity
0.68819
Inclination
23.6967°
RAAN
130.6695°
Arg. of periapsis
266.4264°
True anomaly
93.69591°
Mean anomaly
19.3824°
Eccentric anomaly
49.25607°
Mean motion
0.59284 °/min
Orbital period
607.25 mins
BSTAR
0
Loading maneuver chart data...
Computing Atmospheric mass density...
Loading historical data...
Loading historical data...
Loading historical data...
Loading historical data...
Loading historical data...
Loading historical data...
Loading historical data...
Other satellites on launch #3 in the year 2002 (2002-02-04 UTC)

Documentation

Showing up to 5 results
|